Palermo / Bocca Di Falco Airport

Jump to: basic info | weather | frequencies | runways | comments

Related pages: nearby airports | nearby navaids | notams | map

Basic information (top)

Codes: LICP
Location: lon 38.110802, lat 13.313300, elev 345 ft / 105 m msl
Status: medium_airport

Weather (top)

Current conditions for Palermo / Punta Raisi Airport 11nm (21km) WNW (rec'd 2014/10/23 15:20Z):

LICJ 231520Z 27023KT 9000 FEW040 SCT065 21/12 Q1008

Airport forecast for Palermo / Punta Raisi Airport 11nm (21km) WNW (rec'd 2014/10/23 12:00Z):

TAF LICJ 231100Z 2312/2412 33024KT 9999 SCT030 
      TEMPO 2312/2321 33025G35KT 4000 TSRA 
      TEMPO 2406/2412 SHRA

Frequencies (top)

Verify before use: may be inaccurate or out of date.

AFIS: 122.1 MHz (AFIS)
APP: 120.2 MHz (RAISI APP)

Runways (top)

17/35: 4,016 x 148 ft (1,224 x 45 m) — paved — not lighted — threshold 17 displaced 935 ft (285 m) — threshold 35 displaced 738 ft (225 m)

Latest comments (top)

No comments yet for Palermo / Bocca Di Falco Airport

More... (top)

See also NOTAMs and nearby airports and navaids, or visit the Palermo / Bocca Di Falco Airport page at the main OurAirports website..